Date String (YYYY-MM-DD hh:mm:ss) UTC,Instrument flags,absolute air pressure of the measurement (hPa),sample flow rate (lpm),inlet stack bypass flow (lpm),air temperature of the measurement (°C),ambient temperature measured by the external sensor (°C),aerosol sample conditioner tube jacket temperature (°C),OPC LED temperature (°C),internal box temperature (°C),relative humidity of the measurement (%),span deviation,mass concentration of particles derived from Lorenz-Mie calculation of OPC scattering (μg/m³),mass concentration of particles derived from Lorenz-Mie calculation of OPC scattering (μg/m³),mass concentration of particles derived from Lorenz-Mie calculation of OPC scattering (μg/m³)
DateTimeUTC,F1_M11,P_M11,Q1_M11,Q2_M11,T1_M11,T2_M11,T3_M11,T4_M11,T5_M11,U1_M11,ZSPAN_M11,X0_M11,X2_M11,X1_M11
2023-12-14 14:00:00,SystemResetWarning,0834.2,5.00,000.00,018.7,017.7,000.0,027.1,020.0,23.0,0000.6,0028.43,0020.46,0019.29
2023-12-14 14:01:00,SystemResetWarning,0834.2,5.01,000.00,018.7,017.7,000.0,027.1,020.0,23.0,0000.8,0028.37,0020.34,0019.19
2023-12-14 14:02:00,SystemResetWarning,0834.2,5.01,000.00,018.7,017.7,000.0,027.1,020.0,23.1,0000.7,0028.75,0020.18,0019.07
2023-12-14 14:03:00,SystemResetWarning,0834.5,5.00,000.00,018.7,017.7,000.0,027.1,020.0,23.1,0000.6,0029.03,0020.06,0018.97
2023-12-14 14:04:00,SystemResetWarning,0834.5,5.00,000.00,018.7,017.7,000.0,027.1,020.0,23.2,0000.6,0028.32,0019.93,0018.86
2023-12-14 14:05:00,SystemResetWarning,0834.5,5.00,000.00,018.7,017.7,000.0,027.1,020.0,23.2,0000.5,0028.30,0019.82,0018.75
2023-12-14 14:06:00,SystemResetWarning,0834.3,5.00,000.00,018.7,017.6,000.0,027.1,020.0,23.3,0000.6,0027.88,0019.68,0018.64
2023-12-14 14:07:00,SystemResetWarning,0834.2,5.00,000.00,018.7,017.6,000.0,027.1,020.0,23.3,0000.5,0027.61,0019.54,0018.49
2023-12-14 14:08:00,SystemResetWarning,0834.3,5.00,000.00,018.7,017.6,000.0,027.1,020.0,23.3,0000.6,0027.51,0019.43,0018.34
2023-12-14 14:09:00,SystemResetWarning,0834.5,5.00,000.00,018.7,017.6,000.0,027.1,020.0,23.3,0000.7,0027.34,0019.34,0018.24
2023-12-14 14:10:00,SystemResetWarning,0834.3,5.00,000.00,018.7,017.6,000.0,027.2,020.0,23.3,0000.8,0027.03,0019.24,0018.16
2023-12-14 14:11:00,SystemResetWarning,0834.3,5.00,000.00,018.7,017.6,000.0,027.2,020.0,23.3,0000.9,0026.79,0019.25,0018.17
2023-12-14 14:12:00,SystemResetWarning,0834.3,5.00,000.00,018.7,017.7,000.0,027.1,020.4,23.3,0000.8,0026.87,0019.32,0018.20
2023-12-14 14:13:00,SystemResetWarning,0834.6,5.01,000.00,018.9,018.4,000.0,027.1,020.8,23.1,0000.8,0026.86,0019.35,0018.22
2023-12-14 14:14:00,SystemResetWarning,0834.7,4.99,000.00,018.9,018.6,000.0,027.1,020.7,23.1,0000.8,0026.46,0019.34,0018.21
2023-12-14 14:15:00,SystemResetWarning,0834.6,5.00,000.00,018.9,018.6,000.0,027.1,020.4,23.1,0000.7,0026.54,0019.37,0018.20
2023-12-14 14:16:00,SystemResetWarning,0834.6,4.99,000.00,018.9,018.5,000.0,027.1,020.2,23.1,0000.8,0026.58,0019.43,0018.22
2023-12-14 14:17:00,SystemResetWarning,0834.2,4.99,000.00,018.9,018.3,000.0,027.1,020.1,23.2,0000.6,0026.57,0019.42,0018.20
2023-12-14 14:18:00,SystemResetWarning,0834.2,5.01,000.00,018.8,018.2,000.0,027.1,020.0,23.2,0000.7,0027.03,0019.43,0018.20
2023-12-14 14:19:00,SystemResetWarning,0834.2,5.01,000.00,018.8,018.2,000.0,027.2,020.0,23.2,0000.6,0027.65,0019.43,0018.23
2023-12-14 14:20:00,SystemResetWarning,0834.2,5.00,000.00,018.8,018.1,000.0,027.2,020.0,23.3,0000.5,0028.06,0019.49,0018.26
2023-12-14 14:21:00,SystemResetWarning,0834.2,5.00,000.00,018.8,018.1,000.0,027.2,020.0,23.3,0000.6,0028.33,0019.59,0018.29
2023-12-14 14:22:00,SystemResetWarning,0834.2,5.00,000.00,018.8,018.0,000.0,027.2,020.0,23.3,0000.3,0028.99,0019.63,0018.29
2023-12-14 14:23:00,SystemResetWarning,0834.2,5.00,000.00,018.8,018.0,000.0,027.2,020.0,23.3,0000.2,0029.06,0019.57,0018.27
2023-12-14 14:24:00,SystemResetWarning,0834.2,5.00,000.00,018.8,018.0,000.0,027.2,020.0,23.4,0000.1,0028.78,0019.63,0018.29
2023-12-14 14:25:00,SystemResetWarning,0834.2,5.00,000.00,018.8,018.0,000.0,027.2,020.0,23.4,0000.2,0028.98,0019.71,0018.31
2023-12-14 14:26:00,SystemResetWarning,0834.2,5.00,000.00,018.8,018.0,000.0,027.2,020.0,23.4,0000.3,0029.36,0019.76,0018.32
2023-12-14 14:27:00,SystemResetWarning,0834.1,4.99,000.00,018.7,017.9,000.0,027.2,020.0,23.4,0000.3,0029.30,0019.73,0018.33
2023-12-14 14:28:00,SystemResetWarning,0834.1,5.00,000.00,018.7,017.9,000.0,027.2,020.0,23.4,0000.5,0029.19,0019.69,0018.33
2023-12-14 14:29:00,SystemResetWarning,0834.2,5.00,000.00,018.7,017.9,000.0,027.2,020.0,23.5,0000.5,0029.63,0019.70,0018.33
2023-12-14 14:30:00,SystemResetWarning,0834.2,4.99,000.00,018.7,017.9,000.0,027.2,020.0,23.5,0000.4,0029.24,0019.72,0018.32
2023-12-14 14:31:00,SystemResetWarning,0834.2,4.99,000.00,018.7,017.9,000.0,027.2,020.0,23.5,0000.4,0029.36,0019.71,0018.31
2023-12-14 14:32:00,SystemResetWarning,0834.5,5.00,000.00,018.7,017.9,000.0,027.2,020.0,23.5,0000.4,0028.99,0019.69,0018.32
2023-12-14 14:33:00,SystemResetWarning,0834.3,5.01,000.00,018.7,017.9,000.0,027.2,020.0,23.5,0000.6,0028.42,0019.69,0018.32
2023-12-14 14:34:00,SystemResetWarning,0834.2,5.01,000.00,018.7,017.8,000.0,027.2,020.0,23.5,0000.7,0028.25,0019.73,0018.33
2023-12-14 14:35:00,SystemResetWarning,0834.1,5.01,000.00,018.7,017.8,000.0,027.2,020.0,23.5,0000.6,0028.08,0019.73,0018.32
2023-12-14 14:36:00,SystemResetWarning,0834.1,4.99,000.00,018.7,017.8,000.0,027.2,020.0,23.5,0000.5,0027.76,0019.67,0018.32
2023-12-14 14:37:00,SystemResetWarning,0834.1,4.99,000.00,018.7,017.8,000.0,027.2,020.0,23.5,0000.6,0027.88,0019.65,0018.32
2023-12-14 14:38:00,SystemResetWarning,0834.1,4.99,000.00,018.7,017.8,000.0,027.2,020.0,23.5,0000.3,0028.01,0019.69,0018.34
2023-12-14 14:39:00,SystemResetWarning,0834.1,4.99,000.00,018.7,017.8,000.0,027.2,020.0,23.5,0000.0,0028.01,0019.73,0018.38
2023-12-14 14:40:00,SystemResetWarning,0834.1,5.00,000.00,018.7,017.8,000.0,027.2,020.0,23.5,0000.0,0027.36,0019.73,0018.43
2023-12-14 14:41:00,SystemResetWarning,0834.1,5.01,000.00,018.7,017.8,000.0,027.2,020.0,23.5,0000.1,0027.28,0019.69,0018.45
2023-12-14 14:42:00,SystemResetWarning,0834.0,5.00,000.00,018.7,017.8,000.0,027.2,020.0,23.5,0000.0,0027.30,0019.75,0018.50
2023-12-14 14:43:00,SystemResetWarning,0834.0,5.00,000.00,018.7,017.7,000.0,027.2,020.0,23.5,-000.1,0027.39,0019.77,0018.50
2023-12-14 14:44:00,SystemResetWarning,0834.0,5.01,000.00,018.7,017.7,000.0,027.2,020.0,23.5,-000.1,0028.31,0019.82,0018.52
2023-12-14 14:45:00,SystemResetWarning,0834.0,5.00,000.00,018.7,017.7,000.0,027.2,020.0,23.4,-000.1,0029.18,0019.83,0018.55
2023-12-14 14:46:00,SystemResetWarning,0834.0,4.99,000.00,018.7,017.7,000.0,027.2,020.0,23.4,0000.1,0029.87,0019.80,0018.58
2023-12-14 14:47:00,SystemResetWarning,0834.0,5.00,000.00,018.7,017.7,000.0,027.2,020.0,23.4,0000.2,0030.39,0019.87,0018.61
2023-12-14 14:48:00,SystemResetWarning,0834.0,5.00,000.00,018.7,017.7,000.0,027.2,020.0,23.3,-000.1,0030.08,0019.93,0018.64
2023-12-14 14:49:00,SystemResetWarning,0834.0,5.00,000.00,018.7,017.7,000.0,027.2,020.0,23.3,0000.1,0030.23,0019.96,0018.67
2023-12-14 14:50:00,SystemResetWarning,0834.0,5.00,000.00,018.7,017.6,000.0,027.2,020.0,23.2,0000.2,0030.87,0020.01,0018.70
2023-12-14 14:51:00,SystemResetWarning,0834.0,5.01,000.00,018.7,017.6,000.0,027.2,020.0,23.0,0000.1,0030.95,0020.02,0018.72
2023-12-14 14:52:00,SystemResetWarning,0834.0,5.01,000.00,018.7,017.6,000.0,027.2,020.0,22.8,0000.1,0031.44,0020.06,0018.74
2023-12-14 14:53:00,SystemResetWarning,0834.0,5.00,000.00,018.7,017.6,000.0,027.2,020.0,22.7,0000.1,0031.02,0020.02,0018.69
2023-12-14 14:54:00,SystemResetWarning,0834.0,5.00,000.00,018.7,017.6,000.0,027.2,020.0,22.8,0000.0,0031.07,0019.90,0018.64
2023-12-14 14:55:00,SystemResetWarning,0834.0,5.00,000.00,018.7,017.6,000.0,027.2,020.0,22.9,-000.0,0030.29,0019.84,0018.65
2023-12-14 14:56:00,SystemResetWarning,0833.9,5.00,000.00,018.7,017.6,000.0,027.2,020.0,22.9,0000.1,0029.70,0019.84,0018.65
2023-12-14 14:57:00,SystemResetWarning,0834.0,5.00,000.00,018.7,017.6,000.0,027.2,020.0,23.0,-000.0,0028.59,0019.82,0018.63
2023-12-14 14:58:00,SystemResetWarning,0833.9,5.00,000.00,018.7,017.6,000.0,027.1,020.0,23.0,-000.1,0028.32,0019.87,0018.66
2023-12-14 14:59:00,SystemResetWarning,0833.9,5.00,000.00,018.7,017.7,000.0,027.1,020.0,23.1,0000.1,0028.20,0019.79,0018.67
